Weather in Bolshaya Tayaba

Russia / Chuvash Republic     55°14′32″N   47°55′07″E
temp.,
°C
wind,
m/s
gust,
m/s
humid.,
%
clouds,
%
prec.,
mm/h
press.,
hPa
HPBL,
m
26 june, sun
sun2600:00+15nw33770 0.0 101436
03:00+13n410850 0.0 1015164
06:00+14n511770 0.0 1017340
09:00+17n69590 0.0 1018986
12:00+19n79490 0.0 10181603
15:00+20n69505 0.0 10181840
18:00+19n37645 0.0 1019406
21:00+14nnw22760 0.0 101914
27 june, mon
mon2700:00+13nw22770 0.0 102015
03:00+12wnw33760 0.0 101933
06:00+15w37765 0.0 1019195
09:00+21w696031 0.0 1017651
12:00+25w811570 0.0 10151101
15:00+25wnw711777 1.2 10131152
18:00+20w5989100 5.0 1013278
21:00+17nne39950 6.6 1015252
28 june, tue
tue2800:00+11nne511890 0.0 1016245
03:00+8nne38935 0.0 1018161
06:00+10n48830 0.0 1019348
09:00+14n710600 0.0 10191260
12:00+15n79526 0.0 10191788
15:00+16n58495 0.0 10191911
18:00+15n466019 0.0 1019721
21:00+10n33745 0.0 102033
29 june, wed
wed2900:00+9nnw34742 0.0 102044
03:00+8nw487499 0.0 1020144
06:00+10nnw51072100 0.0 1020336
09:00+13n686269 0.0 1020863
12:00+17nnw575139 0.0 10201315
15:00+19nnw58467 0.0 10181765
18:00+18nnw47620 0.0 1018357
21:00+12nnw3377100 0.0 101826
30 june, thu
thu3000:00+11nw466595 0.0 101787
03:00+11nw4966100 0.0 1016167
06:00+13wnw4107292 0.0 1015268
09:00+18nw710579 0.0 10141095
12:00+19nnw8115087 0.0 10132064
15:00+17nnw61161100 0.0 1012819
18:00+16nne610636 0.2 10141138
21:00+10nne410690 0.2 1016184